Orbital Elements at Epoch 2459200.5 (2020-Dec-17.0) TDB
Reference: JPL 19 (heliocentric ecliptic J2000)
Element | Value | Uncertainty (1-sigma) | Units |
e | .166388779028038 | 3.5252e-08 | |
a | 2.749441097920188 | 1.2979e-08 | au |
q | 2.291964950627739 | 9.5891e-08 | au |
i | 8.344810567907597 | 4.506e-06 | deg |
node | 337.7095340561759 | 2.671e-05 | deg |
peri | 77.26467047885994 | 3.165e-05 | deg |
M | 11.94429171664269 | 1.4046e-05 | deg |
tp | 2459145.251186222260 (2020-Oct-22.75118622) | 6.502e-05 | TDB |
period | 1665.194842174938 4.56 | 1.1791e-05 3.228e-08 | d yr |
n | .2161909170519638 | 1.5308e-09 | deg/d |
Q | 3.206917245212636 | 1.5139e-08 | au |
|
| | Orbit Determination Parameters
Additional Information
|